Location: Maccacari
(45.1333°N, 11.1333°E)
Time: 02:46:24
(UTC+00:00)

Altair - Pass Details

Date: 30 January 2021
Orbit: 1501 x 1682 km, 47.2° (Epoch: 01 March)

Event Time Altitude Azimuth Distance (km) Brightness Sun altitude
Rises 04:33:28 0° 258° (WSW) 4,854 - -22.0°
Reaches altitude 10° 04:36:34 10° 259° (WSW) 3,888 - -21.5°
Exits shadow 04:40:33 29° 261° (W) 2,713 8.2 -20.8°
Maximum altitude 04:46:38 84° 348° (NNW) 1,687 7.6 -19.7°
Drops below altitude 10° 04:56:53 10° 78° (ENE) 3,947 10.7 -17.9°
Sets 05:00:04 0° 79° (E) 4,930 11.5 -17.4°
